N8SHA Weather Reports


Display with metric or nautical units.
time (UTC)temp
F
wind
direction
speed
MPH
gust
MPH
rain 1hr
in
rain 24hr
in
rain mn
in
humidity
%
barometer
mb
20260904174058 72 154 0.0 1.0 0.00 0.32 0.32 99 1015.9
20260904173557 72 202 1.0 2.0 0.00 0.32 0.32 99 1016.0
20260904173053 72 156 0.0 3.0 0.00 0.32 0.32 99 1016.0
20260904172549 71 190 0.0 3.0 0.00 0.32 0.32 99 1015.9
20260904172048 72 176 1.0 3.0 0.00 0.32 0.32 99 1016.2
20260904171543 71 263 0.0 4.0 0.00 0.32 0.32 99 1016.1
20260904171039 72 198 2.0 3.0 0.00 0.32 0.32 99 1016.1
20260904170534 72 186 2.0 3.0 0.00 0.32 0.32 99 1016.0
20260904170031 72 262 0.0 2.0 0.00 0.32 0.32 99 1016.1
20260904165529 72 198 1.0 2.0 0.00 0.32 0.32 99 1016.1
20260904165029 72 235 0.0 2.0 0.00 0.32 0.32 99 1016.0
20260904164524 72 24 0.0 1.0 0.00 0.32 0.32 99 1015.8
20260904164020 72 333 0.0 0.0 0.00 0.32 0.32 99 1015.8
20260904163519 72 141 1.0 1.0 0.00 0.32 0.32 99 1015.6
20260904163015 72 192 0.0 1.0 0.00 0.32 0.32 99 1015.9
20260904162509 71 164 0.0 1.0 0.00 0.32 0.32 99 1015.8
20260904162005 71 117 0.0 1.0 0.00 0.32 0.32 99 1016.0
20260904161459 71 142 0.0 1.0 0.00 0.32 0.32 99 1016.2
20260904160955 70 99 0.0 2.0 0.00 0.32 0.32 99 1016.1
20260904160449 70 32 0.0 2.0 0.00 0.32 0.32 99 1015.9
20260904155944 70 75 0.0 2.0 0.00 0.32 0.32 99 1016.0
20260904155439 70 62 0.0 1.0 0.00 0.32 0.32 99 1016.2
20260904154937 69 49 0.0 1.0 0.00 0.32 0.32 99 1016.7
20260904154432 69 304 0.0 1.0 0.00 0.32 0.32 99 1016.9
20260904153927 69 241 0.0 1.0 0.00 0.32 0.32 99 1016.8
20260904153422 69 177 0.0 1.0 0.00 0.32 0.32 99 1016.8
20260904152919 69 135 0.0 2.0 0.00 0.32 0.32 99 1016.8
20260904152414 68 148 1.0 3.0 0.00 0.32 0.32 99 1016.8
20260904151913 69 158 0.0 3.0 0.00 0.32 0.32 99 1017.6
20260904151408 69 176 2.0 3.0 0.00 0.32 0.32 99 1017.8
20260904150904 69 157 0.0 2.0 0.02 0.32 0.32 99 1017.7
20260904150359 69 193 0.0 2.0 0.02 0.32 0.32 99 1017.7
20260904145856 69 191 0.0 2.0 0.05 0.31 0.31 99 1017.5
20260904145353 68 13 0.0 2.0 0.05 0.31 0.31 99 1017.5
20260904144848 68 185 0.0 2.0 0.07 0.30 0.30 99 1017.6
20260904144344 68 211 0.0 3.0 0.02 0.29 0.29 99 1017.3
20260904143839 68 228 0.0 2.0 0.02 0.29 0.29 99 1017.3
20260904143336 68 220 1.0 3.0 0.02 0.29 0.29 99 1016.9
20260904142832 68 216 2.0 3.0 0.02 0.29 0.29 99 1017.0
20260904142327 68 178 0.0 2.0 0.02 0.28 0.28 99 1016.8
20260904141822 68 136 0.0 2.0 0.05 0.28 0.28 99 1016.4
20260904141317 68 141 0.0 2.0 0.07 0.28 0.28 99 1016.6
20260904140813 68 119 0.0 2.0 0.17 0.28 0.28 99 1016.9
20260904140308 68 166 0.0 2.0 0.19 0.26 0.26 99 1017.3
20260904135807 68 184 1.0 3.0 0.21 0.25 0.25 99 1017.5
20260904135305 68 104 0.0 1.0 0.21 0.23 0.23 99 1017.7
20260904134759 68 67 0.0 2.0 0.24 0.21 0.21 99 1017.7
20260904134258 68 269 0.0 1.0 0.26 0.19 0.19 99 1017.8
20260904133753 68 107 0.0 1.0 0.17 0.16 0.16 99 1017.9
20260904133249 68 125 0.0 1.0 0.12 0.14 0.14 99 1017.6
20260904132748 68 31 0.0 2.0 0.05 0.13 0.13 99 1017.8
20260904132244 68 70 0.0 1.0 0.02 0.12 0.12 99 1017.7
20260904131742 68 322 0.0 2.0 0.00 0.12 0.12 99 1018.0
20260904131239 68 26 1.0 2.0 0.00 0.12 0.12 99 1018.0
20260904130738 68 19 0.0 2.0 0.00 0.12 0.12 99 1017.7
20260904130238 68 62 0.0 1.0 0.02 0.12 0.12 99 1017.3
20260904125734 68 309 0.0 1.0 0.02 0.12 0.12 99 1016.9
20260904125229 68 76 2.0 2.0 0.00 0.11 0.11 99 1016.8
20260904124724 68 15 0.0 2.0 0.00 0.11 0.11 99 1016.9
20260904124220 68 308 0.0 2.0 0.00 0.11 0.11 99 1016.5
20260904123715 68 279 1.0 3.0 0.02 0.11 0.11 99 1016.8
20260904123210 68 82 2.0 3.0 0.02 0.11 0.11 99 1017.1
20260904122710 68 315 2.0 2.0 0.00 0.11 0.11 99 1017.4
20260904122205 68 98 0.0 3.0 0.02 0.11 0.11 99 1017.3
20260904121700 68 202 0.0 3.0 0.14 0.11 0.11 99 1016.7
20260904121155 68 351 0.0 2.0 0.07 0.10 0.10 99 1016.3
20260904120652 67 326 2.0 2.0 0.02 0.09 0.09 99 1016.4
20260904120148 67 339 0.0 3.0 0.05 0.09 0.09 99 1016.0
20260904115643 67 176 1.0 5.0 0.09 0.08 0.08 99 1016.6
20260904115137 67 177 2.0 3.0 0.05 0.07 0.07 99 1016.9
20260904114632 67 190 2.0 3.0 0.00 0.07 0.07 99 1017.1
20260904114131 67 247 1.0 4.0 0.00 0.07 0.07 99 1016.7
20260904113626 67 172 0.0 2.0 0.00 0.07 0.07 99 1016.3
20260904113125 67 60 0.0 2.0 0.00 0.07 0.07 99 1016.4
20260904112621 67 52 3.0 3.0 0.02 0.07 0.07 99 1016.1
20260904112117 67 269 0.0 2.0 0.07 0.07 0.07 99 1016.1
20260904111612 67 76 0.0 2.0 0.35 0.06 0.06 99 1016.2
20260904111108 67 311 0.0 1.0 0.31 0.05 0.05 99 1016.6
20260904110603 67 104 1.0 2.0 0.00 0.00 0.00 99 1017.0
20260904110058 67 352 0.0 2.0 0.00 0.00 0.00 99 1016.5
20260904105557 67 135 0.0 1.0 0.00 0.00 0.00 99 1016.1
20260904105052 67 129 0.0 1.0 0.00 0.00 0.00 99 1016.1
20260904104548 67 6 1.0 2.0 0.00 0.00 0.00 99 1016.1
20260904104043 67 15 0.0 1.0 0.00 0.00 0.00 99 1015.9
20260904103539 67 32 0.0 1.0 0.00 0.00 0.00 99 1015.9
20260904103035 67 19 0.0 1.0 0.00 0.00 0.00 99 1015.9
20260904102530 67 76 1.0 1.0 0.00 0.00 0.00 99 1015.8
20260904102025 67 351 0.0 3.0 0.00 0.00 0.00 99 1015.8
20260904101522 67 62 0.0 1.0 0.00 0.00 0.00 99 1015.6
20260904101017 67 22 0.0 0.0 0.00 0.00 0.00 99 1015.5
20260904100513 67 351 1.0 3.0 0.00 0.00 0.00 99 1015.3
20260904100008 67 110 0.0 1.0 0.00 0.00 0.00 99 1015.1
20260904095502 67 43 0.0 1.0 0.00 0.00 0.00 99 1015.0
20260904094957 67 89 0.0 1.0 0.00 0.00 0.00 99 1015.0
20260904094452 67 3 1.0 1.0 0.00 0.00 0.00 99 1015.1
20260904093948 67 336 0.0 1.0 0.00 0.00 0.00 99 1015.2
20260904093444 67 50 0.0 1.0 0.00 0.00 0.00 99 1015.2
20260904092939 67 55 0.0 1.0 0.00 0.00 0.00 99 1015.4
20260904092435 67 113 0.0 1.0 0.00 0.00 0.00 99 1015.2
20260904091931 67 57 0.0 2.0 0.00 0.00 0.00 99 1015.6
20260904091426 67 44 0.0 3.0 0.00 0.00 0.00 99 1015.5
20260904090921 67 20 0.0 2.0 0.00 0.00 0.00 99 1015.4
20260904090417 67 75 0.0 2.0 0.00 0.00 0.00 99 1015.6
20260904085912 67 44 0.0 1.0 0.00 0.00 0.00 99 1015.8
20260904085407 67 105 0.0 2.0 0.00 0.00 0.00 99 1015.9
20260904084901 67 67 0.0 2.0 0.00 0.00 0.00 99 1016.1
20260904084358 67 44 0.0 2.0 0.00 0.00 0.00 99 1016.1
20260904083852 67 304 0.0 1.0 0.00 0.00 0.00 99 1015.9
20260904083349 67 44 0.0 1.0 0.00 0.00 0.00 99 1016.1
20260904082839 67 15 0.0 0.0 0.00 0.00 0.00 99 1016.0
20260904082333 67 76 0.0 1.0 0.00 0.00 0.00 99 1015.7
20260904081828 67 38 0.0 1.0 0.00 0.00 0.00 99 1016.2
20260904081324 67 89 0.0 1.0 0.00 0.00 0.00 99 1016.3
20260904080821 67 129 0.0 1.0 0.00 0.00 0.00 99 1015.8
20260904080315 66 72 0.0 2.0 0.00 0.00 0.00 99 1016.1
20260904075812 66 89 0.0 0.0 0.00 0.00 0.00 99 1016.1
20260904075307 67 49 0.0 1.0 0.00 0.00 0.00 99 1016.2
20260904074805 66 62 0.0 1.0 0.00 0.00 0.00 99 1016.2
20260904074300 67 66 0.0 1.0 0.00 0.00 0.00 99 1016.0
20260904073756 67 66 0.0 2.0 0.00 0.00 0.00 99 1016.0
20260904073251 67 62 0.0 0.0 0.00 0.00 0.00 99 1015.8
20260904072748 67 62 0.0 0.0 0.00 0.00 0.00 99 1015.7
20260904072246 67 62 0.0 1.0 0.00 0.00 0.00 99 1015.7
20260904071743 67 89 0.0 0.0 0.00 0.00 0.00 99 1015.8
20260904071237 67 310 0.0 0.0 0.00 0.00 0.00 99 1015.8
20260904070732 67 129 0.0 1.0 0.00 0.00 0.00 99 1015.8
20260904070231 67 115 0.0 1.0 0.00 0.00 0.00 99 1016.0
20260904065726 67 117 0.0 2.0 0.00 0.00 0.00 99 1016.1
20260904065223 67 37 0.0 0.0 0.00 0.00 0.00 99 1016.4
20260904064722 67 37 0.0 0.0 0.00 0.00 0.00 99 1016.5
20260904064218 67 37 0.0 0.0 0.00 0.00 0.00 99 1016.8
20260904063714 67 62 0.0 2.0 0.00 0.00 0.00 99 1016.9
20260904063210 67 15 0.0 1.0 0.00 0.00 0.00 99 1016.8
20260904062705 67 58 1.0 1.0 0.00 0.00 0.00 99 1016.4
20260904062201 67 107 0.0 1.0 0.00 0.00 0.00 99 1016.7
20260904061656 67 55 0.0 0.0 0.00 0.00 0.00 99 1016.9
20260904061152 67 55 0.0 0.0 0.00 0.00 0.00 99 1016.9
20260904060648 67 55 0.0 0.0 0.00 0.00 0.00 99 1016.8
20260904060139 67 89 0.0 1.0 0.00 0.00 0.00 99 1016.6
20260904055638 67 84 0.0 1.0 0.00 0.00 0.00 99 1016.6
20260904055134 67 107 0.0 0.0 0.00 0.00 0.00 99 1016.6
20260904054630 67 89 0.0 1.0 0.00 0.00 0.00 99 1016.7
20260904054126 67 110 0.0 1.0 0.00 0.00 0.00 99 1016.6
20260904053620 67 106 0.0 1.0 0.00 0.00 0.00 99 1016.9
20260904053115 67 97 0.0 2.0 0.00 0.00 0.00 99 1016.9
20260904052612 67 89 0.0 2.0 0.00 0.00 0.00 99 1017.0
20260904052107 67 89 0.0 2.0 0.00 0.00 0.00 99 1017.3
20260904051604 67 129 0.0 1.0 0.00 0.00 0.00 99 1017.0
20260904051103 67 117 0.0 1.0 0.00 0.00 0.00 99 1017.0
20260904050559 67 82 0.0 1.0 0.00 0.00 0.00 99 1017.0
20260904050055 67 55 0.0 1.0 0.00 0.00 0.00 99 1017.1
20260904045549 67 62 0.0 0.0 0.00 0.00 0.00 99 1017.1
20260904045044 67 62 0.0 0.0 0.00 0.00 0.00 99 1017.1
20260904044540 67 129 0.0 0.0 0.00 0.00 0.00 99 1016.8
20260904044036 67 129 0.0 0.0 0.00 0.00 0.00 99 1016.8
20260904043532 67 129 0.0 1.0 0.00 0.00 0.00 99 1017.0
20260904043028 67 37 0.0 0.0 0.00 0.00 0.00 99 1016.9
20260904042524 67 7 0.0 1.0 0.00 0.00 0.00 99 1016.9
20260904042019 68 104 0.0 2.0 0.00 0.00 0.00 99 1016.6
20260904041515 67 55 0.0 1.0 0.00 0.00 0.00 99 1016.7
20260904041011 67 104 0.0 0.0 0.00 0.00 0.00 99 1016.8
20260904040510 67 104 0.0 0.0 0.00 0.00 0.00 99 1016.7
20260904040008 67 25 0.0 1.0 0.00 1.04 1.04 99 1016.7
20260904035503 67 117 0.0 0.0 0.00 1.04 1.04 99 1016.7
20260904035002 67 117 0.0 0.0 0.00 1.04 1.04 99 1016.6
20260904034456 67 117 0.0 0.0 0.00 1.04 1.04 99 1016.8
20260904033952 67 117 0.0 0.0 0.00 1.04 1.04 99 1016.6
20260904033448 67 129 0.0 0.0 0.00 1.04 1.04 99 1016.6
20260904032945 67 50 0.0 0.0 0.00 1.04 1.04 99 1016.3
20260904032440 67 25 0.0 0.0 0.00 1.04 1.04 99 1016.3
20260904031939 67 25 0.0 0.0 0.00 1.04 1.04 99 1016.3
20260904031434 67 129 0.0 0.0 0.00 1.04 1.04 99 1016.1
20260904030930 67 147 0.0 1.0 0.00 1.04 1.04 99 1016.3
20260904030425 67 89 0.0 1.0 0.00 1.04 1.04 99 1016.3
20260904025920 67 129 0.0 2.0 0.00 1.04 1.04 99 1016.3
20260904025417 67 142 0.0 0.0 0.00 1.04 1.04 99 1016.4
20260904024916 67 142 0.0 1.0 0.00 1.04 1.04 99 1016.2
20260904024411 67 89 0.0 1.0 0.00 1.04 1.04 99 1016.2
20260904023907 68 142 0.0 1.0 0.00 1.04 1.04 99 1016.3
20260904023404 68 75 0.0 1.0 0.00 1.04 1.04 99 1016.2
20260904022902 68 104 0.0 1.0 0.00 1.04 1.04 99 1016.2
20260904022359 68 121 0.0 1.0 0.00 1.04 1.04 99 1016.3
20260904021856 68 89 0.0 0.0 0.00 1.04 1.04 99 1016.3
20260904021351 68 62 1.0 1.0 0.00 1.04 1.04 99 1016.1
20260904020846 68 129 0.0 1.0 0.00 1.04 1.04 99 1016.0
20260904020341 68 89 0.0 1.0 0.00 1.04 1.04 99 1016.1
20260904015839 68 74 1.0 2.0 0.00 1.04 1.04 99 1016.3
20260904015335 68 172 0.0 1.0 0.00 1.04 1.04 99 1016.0
20260904014834 68 85 1.0 2.0 0.00 1.04 1.04 99 1016.2
20260904014329 68 86 0.0 2.0 0.00 1.04 1.04 99 1016.2
20260904013825 68 172 0.0 0.0 0.00 1.04 1.04 99 1016.1
20260904013321 69 173 0.0 1.0 0.00 1.04 1.04 99 1015.9
20260904012816 69 104 0.0 0.0 0.00 1.04 1.04 99 1015.7
20260904012311 69 104 0.0 0.0 0.00 1.04 1.04 99 1015.9
20260904011810 69 104 0.0 1.0 0.00 1.04 1.04 99 1016.0
20260904011305 69 62 0.0 0.0 0.00 1.04 1.04 99 1016.2
20260904010759 69 117 0.0 1.0 0.00 1.04 1.04 99 1015.8
20260904010257 69 53 0.0 1.0 0.00 1.04 1.04 99 1016.1
20260904005751 69 104 0.0 1.0 0.00 1.04 1.04 99 1015.9
20260904005247 69 32 0.0 1.0 0.00 1.04 1.04 99 1015.7
20260904004742 69 25 0.0 2.0 0.00 1.04 1.04 99 1015.7
20260904004238 69 351 0.0 0.0 0.00 1.04 1.04 98 1015.5
20260904003732 69 185 0.0 2.0 0.00 1.04 1.04 98 1015.5
20260904003229 69 343 0.0 2.0 0.00 1.04 1.04 98 1015.2
20260904002724 69 142 0.0 2.0 0.00 1.04 1.04 98 1015.1
20260904002220 70 154 0.0 3.0 0.00 1.04 1.04 98 1015.0
20260904001715 70 242 0.0 2.0 0.00 1.04 1.04 98 1015.2
20260904001214 70 129 0.0 0.0 0.00 1.04 1.04 98 1015.1
20260904000709 70 32 0.0 1.0 0.00 1.04 1.04 98 1015.1
20260904000204 70 149 0.0 3.0 0.00 1.04 1.04 98 1015.1
20260903235703 70 13 0.0 3.0 0.00 1.04 1.04 98 1015.1
20260903235200 70 152 0.0 3.0 0.00 1.04 1.04 98 1015.1
20260903234654 70 240 0.0 4.0 0.00 1.04 1.04 98 1015.2
20260903234151 70 180 0.0 3.0 0.00 1.04 1.04 98 1015.0
20260903233646 71 157 0.0 2.0 0.00 1.04 1.04 98 1015.1
20260903233143 71 315 0.0 2.0 0.00 1.04 1.04 98 1015.3
20260903232636 71 228 1.0 3.0 0.00 1.04 1.04 98 1015.0
20260903232133 71 253 2.0 4.0 0.00 1.04 1.04 99 1015.1
20260903231632 71 172 1.0 3.0 0.00 1.04 1.04 99 1015.2
20260903231132 71 215 0.0 2.0 0.00 1.04 1.04 99 1015.2
20260903230627 71 269 0.0 2.0 0.00 1.04 1.04 99 1015.3
20260903230126 71 217 0.0 2.0 0.00 1.04 1.04 99 1015.0
20260903225624 71 261 0.0 2.0 0.00 1.04 1.04 99 1014.8
20260903225120 71 297 0.0 2.0 0.00 1.04 1.04 99 1014.8
20260903224616 71 157 0.0 2.0 0.00 1.04 1.04 99 1015.0
20260903224112 71 299 3.0 5.0 0.00 1.04 1.04 99 1014.7
20260903223607 71 66 0.0 3.0 0.00 1.04 1.04 99 1014.7
20260903223105 71 75 0.0 2.0 0.00 1.04 1.04 99 1015.2
20260903222600 71 290 0.0 2.0 0.00 1.04 1.04 99 1014.8
20260903222059 71 315 0.0 3.0 0.00 1.04 1.04 99 1014.9
20260903221555 71 66 0.0 4.0 0.00 1.04 1.04 99 1014.7
20260903221052 71 309 0.0 2.0 0.00 1.04 1.04 99 1014.8
20260903220551 71 310 2.0 3.0 0.00 1.04 1.04 99 1015.0
20260903220051 71 154 0.0 2.0 0.00 1.04 1.04 99 1015.4
20260903215550 71 309 0.0 0.0 0.00 1.04 1.04 99 1015.7
20260903215049 71 330 2.0 2.0 0.00 1.04 1.04 99 1015.5
20260903214544 71 89 0.0 1.0 0.00 1.04 1.04 99 1015.4
20260903214039 71 60 1.0 2.0 0.00 1.04 1.04 99 1015.8
20260903213534 71 127 0.0 2.0 0.00 1.04 1.04 99 1015.6
20260903213030 71 96 0.0 2.0 0.00 1.04 1.04 99 1016.0
20260903212526 71 25 0.0 1.0 0.00 1.04 1.04 99 1016.1
20260903212021 71 326 0.0 2.0 0.00 1.04 1.04 99 1016.0
20260903211516 71 124 0.0 1.0 0.00 1.04 1.04 99 1016.4
20260903211013 71 58 0.0 2.0 0.00 1.04 1.04 99 1016.5
20260903210507 72 102 0.0 1.0 0.00 1.04 1.04 99 1016.3
20260903210002 72 187 0.0 1.0 0.00 1.04 1.04 99 1016.2
20260903205456 71 89 0.0 3.0 0.00 1.04 1.04 99 1016.1
20260903204950 72 321 0.0 2.0 0.00 1.04 1.04 99 1016.1
20260903204447 71 69 0.0 5.0 0.00 1.04 1.04 99 1015.9
20260903203942 72 75 1.0 3.0 0.00 1.04 1.04 99 1015.6
20260903203438 72 317 3.0 4.0 0.00 1.04 1.04 99 1015.5
20260903202937 72 5 1.0 3.0 0.00 1.04 1.04 99 1015.5
20260903202433 71 40 1.0 3.0 0.00 1.04 1.04 99 1015.9
20260903201927 71 342 3.0 5.0 0.00 1.04 1.04 99 1016.2
20260903201423 71 22 2.0 3.0 0.00 1.04 1.04 99 1016.3
20260903200921 70 330 1.0 3.0 0.00 1.04 1.04 99 1016.7
20260903200416 70 41 2.0 3.0 0.02 1.04 1.04 99 1016.8
20260903195912 70 339 0.0 3.0 0.02 1.03 1.03 99 1016.5
20260903195408 69 63 0.0 5.0 0.05 1.03 1.03 99 1016.1
20260903194902 70 316 3.0 5.0 0.09 1.03 1.03 99 1015.8
20260903194358 70 23 3.0 5.0 0.38 1.03 1.03 98 1016.3
20260903193853 70 63 0.0 3.0 0.57 1.01 1.01 98 1016.7
20260903193350 70 126 2.0 11.0 0.85 0.95 0.95 98 1017.4
20260903192844 70 321 4.0 5.0 1.28 0.91 0.91 97 1016.6
20260903192340 70 0 5.0 15.0 0.50 0.76 0.76 96 1016.0
20260903191837 73 358 4.0 16.0 0.00 0.67 0.67 94 1016.0
20260903191332 76 22 6.0 12.0 0.00 0.67 0.67 96 1015.5
20260903190831 76 318 2.0 3.0 0.00 0.67 0.67 96 1015.1
20260903190326 76 89 0.0 0.0 0.00 0.67 0.67 96 1014.5
20260903185826 76 87 0.0 1.0 0.00 0.67 0.67 95 1014.5
20260903185321 77 104 0.0 2.0 0.00 0.67 0.67 95 1014.8
20260903184817 77 104 0.0 1.0 0.00 0.67 0.67 94 1014.8
20260903184314 77 109 1.0 2.0 0.00 0.67 0.67 93 1014.8
20260903183808 78 99 0.0 2.0 0.00 0.67 0.67 93 1014.9
20260903183302 78 103 0.0 1.0 0.00 0.67 0.67 92 1014.8
20260903182801 78 283 0.0 2.0 0.00 0.67 0.67 91 1014.7
20260903182256 78 32 0.0 1.0 0.00 0.67 0.67 91 1014.7
20260903181755 78 135 0.0 3.0 0.00 0.67 0.67 90 1014.8
20260903181250 79 161 1.0 4.0 0.00 0.67 0.67 88 1014.8
20260903180746 79 117 0.0 1.0 0.00 0.67 0.67 89 1014.8
20260903180245 81 117 0.0 2.0 0.00 0.67 0.67 89 1014.9
20260903175744 79 195 0.0 3.0 0.00 0.67 0.67 89 1014.7
20260903175244 78 186 1.0 4.0 0.00 0.67 0.67 92 1014.7
20260903174743 78 193 0.0 2.0 0.00 0.67 0.67 94 1014.3